Location: Ariel
(45.9570°N, 122.5700°W)
Time: 07:19:52
(UTC-07:00)

SR - All Passes

Search period start: 16 July 2019 00:00
Search period end: 26 July 2019 00:00
Orbit: 581 x 875 km, 66.7° (Epoch: 16 July)

Date Brightness Start Highest point End Pass type
(mag) Time Alt. Az. Time Alt. Az. Time Alt. Az.
16 Jul - 05:08:42 10° N 05:10:42 12° NNE 05:12:46 10° NE daylight
16 Jul - 06:49:05 10° NNW 06:53:58 46° NE 06:59:14 10° SE daylight
16 Jul - 08:31:23 10° NW 08:35:54 31° WSW 08:40:44 10° S daylight
16 Jul - 21:24:51 10° SE 21:26:51 13° ESE 21:28:53 10° ENE daylight
16 Jul - 23:03:56 10° SW 23:08:11 71° NW 23:12:41 10° NNE visible
17 Jul - 00:48:47 10° WNW 00:51:09 14° NNW 00:53:35 10° N visible
17 Jul - 05:59:45 10° NNW 06:04:05 28° NE 06:08:41 10° ESE daylight
17 Jul - 07:41:23 10° NW 07:46:26 58° WSW 07:51:53 10° SSE daylight
17 Jul - 22:14:27 10° SSW 22:18:36 55° ESE 22:22:59 10° NE visible
17 Jul - 23:57:34 10° W 00:01:00 22° NW 00:04:36 10° NNE visible
18 Jul - 05:10:37 10° N 05:14:01 18° NE 05:17:35 10° E daylight
18 Jul - 06:51:41 10° NNW 06:56:50 78° ENE 07:02:23 10° SE daylight
18 Jul - 08:35:00 10° WNW 08:38:25 18° WSW 08:41:59 10° SSW daylight
18 Jul - 21:25:41 10° SSE 21:29:13 26° ESE 21:32:54 10° NE visible
18 Jul - 23:07:01 10° WSW 23:11:03 38° NW 23:15:20 10° NNE visible
19 Jul - 04:21:54 10° N 04:23:47 12° NNE 04:25:42 10° NE visible
19 Jul - 06:02:13 10° NNW 06:07:05 44° NE 06:12:20 10° ESE daylight
19 Jul - 07:44:26 10° NW 07:49:04 33° WSW 07:54:00 10° S daylight
19 Jul - 20:38:17 10° SE 20:40:01 12° ESE 20:41:46 10° E daylight
19 Jul - 22:17:01 10° SW 22:21:17 76° NW 22:25:50 10° NNE visible
20 Jul - 00:01:42 10° WNW 00:04:12 15° NNW 00:06:49 10° N visible
20 Jul - 05:12:54 10° NNW 05:17:11 27° NE 05:21:45 10° E daylight
20 Jul - 06:54:28 10° NW 06:59:35 61° WSW 07:05:06 10° SSE daylight
20 Jul - 21:27:36 10° SSW 21:31:44 51° ESE 21:36:06 10° NE visible
20 Jul - 23:10:34 10° W 23:14:05 23° NW 23:17:48 10° NNE visible
21 Jul - 04:23:46 10° N 04:27:07 17° NE 04:30:36 10° ENE visible
21 Jul - 06:04:49 10° NNW 06:09:59 74° ENE 06:15:33 10° SE daylight
21 Jul - 07:47:58 10° WNW 07:51:36 19° WSW 07:55:21 10° SSW daylight
21 Jul - 20:38:54 10° SSE 20:42:22 24° ESE 20:45:58 10° ENE daylight
21 Jul - 22:20:04 10° WSW 22:24:09 40° NW 22:28:29 10° NNE visible
22 Jul - 00:07:04 10° NNW 00:07:35 10° NNW 00:08:06 10° NNW visible
22 Jul - 03:35:05 10° N 03:36:51 12° NNE 03:38:40 10° NE visible
22 Jul - 05:15:20 10° NNW 05:20:13 42° NE 05:25:27 10° ESE daylight
22 Jul - 06:57:30 10° NW 07:02:14 35° WSW 07:07:16 10° S daylight
22 Jul - 19:51:45 10° ESE 19:53:10 11° ESE 19:54:36 10° E daylight
22 Jul - 21:30:07 10° SW 21:34:23 81° WNW 21:38:59 10° NNE visible
22 Jul - 23:14:37 10° WNW 23:17:17 15° NW 23:20:02 10° N visible
23 Jul - 04:26:02 10° NNW 04:30:17 26° NE 04:34:49 10° E visible
23 Jul - 06:07:35 10° NW 06:12:44 65° WSW 06:18:18 10° SSE daylight
23 Jul - 20:40:45 10° S 20:44:51 48° ESE 20:49:13 10° NE daylight
23 Jul - 22:23:34 10° W 22:27:10 24° NW 22:30:58 10° NNE visible
24 Jul - 03:36:55 10° N 03:40:12 17° NE 03:43:37 10° ENE visible
24 Jul - 05:17:56 10° NNW 05:23:06 71° NE 05:28:42 10° SE daylight
24 Jul - 07:00:58 10° WNW 07:04:46 20° WSW 07:08:43 10° SSW daylight
24 Jul - 19:52:07 10° SSE 19:55:31 23° ESE 19:59:02 10° ENE daylight
24 Jul - 21:33:07 10° WSW 21:37:15 43° NW 21:41:39 10° NNE visible
24 Jul - 23:19:36 10° NW 23:20:38 11° NNW 23:21:41 10° NNW visible
25 Jul - 02:48:17 10° N 02:49:55 11° NNE 02:51:35 10° NE visible
25 Jul - 04:28:28 10° NNW 04:33:20 40° NE 04:38:33 10° ESE visible
25 Jul - 06:10:35 10° NW 06:15:24 37° WSW 06:20:31 10° S daylight
25 Jul - 19:05:21 10° ESE 19:06:20 11° ESE 19:07:19 10° E daylight
25 Jul - 20:43:13 10° SSW 20:47:30 86° WNW 20:52:07 10° NNE daylight
25 Jul - 22:27:33 10° WNW 22:30:21 16° NW 22:33:16 10° N visible
